Annapolis, MD

1:02 PM EST on February 23, 2017 (GMT -0500)
Annapolis Naval Academy

Weather History for KNAK - April, 2014

Change the Weather History Date:

Saturday, April 5, 2014

  Actual Average (KBWI) Record (KBWI)
Temperature  
Mean Temperature 50 °F -  
Max Temperature 55 °F 59 °F 84 °F (2010)
Min Temperature 46 °F 40 °F 25 °F (1881)
Degree Days  
Heating Degree Days 14    
Moisture  
Dew Point 37 °F    
Average Humidity 66    
Maximum Humidity 96    
Minimum Humidity 35    
Precipitation  
Precipitation 0.01 in - - ()
Sea Level Pressure  
Sea Level Pressure 29.93 in    
Wind  
Wind Speed 7 mph (NW)    
Max Wind Speed 16 mph    
Max Gust Speed 25 mph    
Visibility 7 miles    
Events      
Averages and records for this station are not official NWS values.
T = Trace of Precipitation, MM = Missing Value Source: NWS Daily Summary

Daily Weather History Graph

Daily Weather History Graph

Search for Another Location

Airport or City:

Trip Planner

Search our weather history database for the weather conditions in past years. The results will help you decide how hot, cold, wet, or windy it might be!

Date:

Astronomy

Apr. 05, 2014 Rise Set
Actual Time 6:44 AM EDT 7:33 PM EDT
Civil Twilight 6:17 AM EDT 8:00 PM EDT
Nautical Twilight 5:45 AM EDT 8:32 PM EDT
Astronomical Twilight 5:12 AM EDT 9:05 PM EDT
Moon 10:52 AM EDT (4/5) 12:39 AM EDT (4/5)
Length of Visible Light 13h 43m
Length of Day
12h 49m
Waxing Crescent, 34% of the Moon is Illuminated
Apr 5
Waxing Crescent
Apr 7
First Quarter
Apr 15
Full
Apr 22
Last Quarter
Apr 29
New

Hourly Weather History & Observations

Time (EDT) Temp. Windchill Dew Point Humidity Pressure Visibility Wind Dir Wind Speed Gust Speed Precip Events Conditions
12:54 AM 48.0 °F - 46.9 °F 96% 29.74 in 4.0 mi North 5.8 mph - 0.01 in   Overcast
1:54 AM 48.0 °F - 46.9 °F 96% 29.76 in 4.0 mi North 4.6 mph - N/A   Overcast
2:54 AM 48.0 °F - 46.9 °F 96% 29.76 in 4.0 mi Calm Calm - N/A   Overcast
3:54 AM 48.0 °F - 46.9 °F 96% 29.78 in 3.0 mi NW 4.6 mph - N/A   Overcast
4:22 AM 48.0 °F - 46.0 °F 93% 29.78 in 2.5 mi NW 4.6 mph - N/A   Overcast
4:54 AM 48.0 °F - 46.9 °F 96% 29.81 in 2.5 mi NNW 4.6 mph - N/A   Overcast
5:15 AM 48.0 °F - 46.9 °F 96% 29.81 in 3.0 mi NNW 8.1 mph - N/A   Overcast
5:54 AM 48.0 °F - 46.9 °F 96% 29.83 in 4.0 mi WNW 3.5 mph - N/A   Overcast
6:54 AM 48.0 °F - 46.0 °F 93% 29.86 in 4.0 mi Calm Calm - N/A   Mostly Cloudy
7:02 AM 46.9 °F - 45.0 °F 93% 29.86 in 3.0 mi WNW 3.5 mph - N/A   Scattered Clouds
7:54 AM 48.0 °F - 45.0 °F 89% 29.88 in 3.0 mi North 3.5 mph - N/A   Clear
8:04 AM 48.0 °F - 46.0 °F 93% 29.89 in 2.5 mi Variable 3.5 mph - N/A   Clear
8:11 AM 48.9 °F - 46.0 °F 90% 29.89 in 4.0 mi Calm Calm - N/A   Clear
8:54 AM 51.1 °F - 37.9 °F 61% 29.92 in 10.0 mi WNW 8.1 mph 18.4 mph N/A   Partly Cloudy
9:54 AM 53.1 °F - 30.9 °F 43% 29.93 in 10.0 mi NW 13.8 mph 20.7 mph N/A   Clear
10:54 AM 54.0 °F - 30.0 °F 40% 29.94 in 10.0 mi WNW 15.0 mph 25.3 mph N/A   Clear
11:54 AM 54.0 °F - 30.9 °F 41% 29.96 in 10.0 mi NW 13.8 mph 24.2 mph N/A   Clear
12:54 PM 54.0 °F - 30.9 °F 41% 29.96 in 10.0 mi NW 15.0 mph 24.2 mph N/A   Clear
1:54 PM 54.0 °F - 28.9 °F 38% 29.98 in 10.0 mi NW 13.8 mph 23.0 mph N/A   Clear
2:54 PM 54.0 °F - 28.0 °F 37% 29.98 in 10.0 mi WNW 11.5 mph 23.0 mph N/A   Clear
3:54 PM 55.0 °F - 28.0 °F 35% 29.99 in 10.0 mi WNW 16.1 mph 23.0 mph N/A   Clear
4:54 PM 54.0 °F - 30.0 °F 40% 30.01 in 10.0 mi NW 12.7 mph - N/A   Clear
5:54 PM 53.1 °F - 28.0 °F 38% 30.03 in 10.0 mi NW 15.0 mph 23.0 mph N/A   Clear
6:54 PM 52.0 °F - 30.0 °F 43% 30.05 in 10.0 mi NW 8.1 mph 19.6 mph N/A   Clear
7:54 PM 51.1 °F - 30.0 °F 44% 30.07 in 10.0 mi NW 8.1 mph - N/A   Clear
8:54 PM 50.0 °F - 30.0 °F 46% 30.11 in 10.0 mi NW 12.7 mph - N/A   Clear
9:54 PM 48.9 °F - 28.9 °F 46% 30.14 in 10.0 mi NW 12.7 mph 20.7 mph N/A   Clear
10:54 PM 48.0 °F - 28.9 °F 48% 30.15 in 10.0 mi NNW 13.8 mph - N/A   Clear
11:54 PM 46.0 °F 41.0 °F 28.0 °F 50% 30.17 in 10.0 mi NNW 10.4 mph - N/A   Clear